Other Public Products
Issued by NWS Charleston, SC

Current Version | Previous Version | Text Only | Print | Product List | Glossary Off
Versions: 1 2 3 4 5 6 7 8 9 10 11 12 13 14 15 16 17 18 19 20 21 22 23 24 25 26 27 28 29 30 31 32 33 34 35 36 37 38 39 40 41 42 43 44 45 46 47 48 49 50

000
FPUS82 KCHS 192227
OPUCHS

TEST...KCHS/KSAV Gateway Observations...TEST
National Weather Service Charleston SC
600 PM EDT THU APR 19 2018

NOTE: "fair" indicates few or no clouds below 12,000 feet with no
significant weather and/or obstructions to visibility.

SCZ050-WAZ558-NCZ071-TXZ119-213-PAZ071-DCZ001-FLZ074-172-MI076-
NYZ176-178-MAZ016-IL014-TNZ027-NJZ106-GAZ044-MD014-192300-

...Gateway Observations for Charleston International...

CITY           SKY/WX    TMP DP  RH WIND       PRES   REMARKS
Chas Airport   FAIR      83  53  35 W21G26    29.91R
Seattle        PTSUNNY   60  36  40 CALM      30.26S
Charlotte      FAIR      63  33  32 NW15G29   30.05R
Dallas DFW     MOSUNNY   69  31  24 NE12G22   30.27F
Dallas Love    MOSUNNY   71  34  25 NE7       30.27F
Philladelphia  CLOUDY    47  29  49 NW15      29.92R
Wash National  FAIR      51  26  37 NW24G39   30.01R
Baltimore      PTSUNNY   47  25  42 NW23G37   29.98R
Miami          PTSUNNY   80  64  58 SE12G21   30.05S
Detroit        FAIR      55  19  24 N13G26    30.17R
Newark         PTSUNNY   46  31  55 NW15G21   29.84R
Laguardia      PTSUNNY   46  30  53 NW25G33   29.82R
J F K          PTSUNNY   46  32  58 NW18G26   29.83R
Boston Logan   PTSUNNY   44  38  79 W9        29.71S
Ft. Lauderdale PTSUNNY   79  65  62 SE14      30.05S
Chicago O`Hare FAIR      54  24  31 NW8       30.38R
Chicago Midway FAIR      53  26  35 N10       30.38S
Houston Bush   FAIR      76  40  27 NE14G20   30.20F
Houston Hobby  FAIR      76  40  27 N16G22    30.18F
Nashville      PTSUNNY   51  31  46 N16G23    30.31S
Atlanta        FAIR      63  38  39 NW17G24   30.11R

$$

GAZ044-118-TXZ119-213-NCZ071-DCZ001-MDZ014-506-PAZ021-071-NJZ106-
NYZ176-178-MAZ106-OHZ011-021-055-MIZ076-KYZ091-ILZ014-INZ047-
MNZ060-ONZ431-192300-

...Gateway Observations for Savannah International...

CITY           SKY/WX    TMP DP  RH WIND       PRES   REMARKS
Savannah Arpt  FAIR      83  56  39 W24G30    29.95R
Atlanta        FAIR      63  38  39 NW17G24   30.11R
Charlotte      FAIR      63  33  32 NW15G29   30.05R
Dallas DFW     MOSUNNY   69  31  24 NE12G22   30.27F
Houston Bush   FAIR      76  40  27 NE14G20   30.20F
Wash National  FAIR      51  26  37 NW24G39   30.01R
Wash Dulles    PTSUNNY   47  27  45 NW20G36   30.04R
Baltimore      PTSUNNY   47  25  42 NW23G37   29.98R
Philadelphia   CLOUDY    47  29  49 NW15      29.92R
Newark         PTSUNNY   46  31  55 NW15G21   29.84R
Laguardia      PTSUNNY   46  30  53 NW25G33   29.82R
J F K          PTSUNNY   46  32  58 NW18G26   29.83R
Boston         PTSUNNY   44  38  79 W9        29.71S
Pittsburg      PTSUNNY   44  26  49 NW18      30.11R
Akron          FAIR      47  25  42 NW21G28   30.14R
Cleveland      FAIR      46  28  49 N10       30.20R
Cincinnati     FAIR      54  27  35 NW13      30.26S
Columbus       FAIR      51  29  43 NW13G22   30.21S
Detroit        FAIR      55  19  24 N13G26    30.17R
Chicago O`Hare FAIR      54  24  31 NW8       30.38R
Minneapolis    FAIR      52  17  25 CALM      30.44F
Indianapolis   FAIR      55  27  34 N17       30.31S
Toronto Canada PTSUNNY   37  21  52 NW22G29   30.07R WCI  27

$$




USA.gov is the U.S. government's official web portal to all federal, state and local government web resources and services.